{"data":{"norad_id":64932,"intl_designator":"2025-158A","name":"STARLINK-34705","alt_names":[],"object_type":"PAYLOAD","status":"ACTIVE","operator":null,"country":"US","launch_date":"2025-07-27","launch_site_code":"AFWTR","launch_vehicle":null,"mission":null,"orbit_class":"UNKNOWN","rcs_meters":null,"size_class":null,"mass_kg":null,"dimensions":null,"purposes":["comms"],"wikipedia_slug":null,"has_3d_model":false,"image_url":null,"decayed_at":null,"tle_current":{"epoch":"2026-09-20T13:16:42.365568Z","epoch_age_seconds":119641,"freshness":"FRESH","line1":"1 64932U 25158A   26263.55326812  .00017124  00000+0  53144-3 0  9990","line2":"2 64932  97.2836 121.8385 0001895  99.1391 261.0067 15.33449898 64707","mean_motion":15.33449898,"eccentricity":0.0001895,"inclination_deg":97.2836,"raan_deg":121.8385,"arg_perigee_deg":99.1391,"mean_anomaly_deg":261.0067,"bstar":0.00053144,"rev_number":6470,"period_min":93.905904710556,"perigee_km":464.23172688347,"apogee_km":466.82547614644,"semimajor_km":6843.665601515,"source":"CELESTRAK","updated_at":"2026-09-21T09:00:35.485852Z"}}}